Regional Weather Roundup
Issued by NWS

Home | Current Version | Previous Version | Graphics & Text | Print | Product List | Glossary On
Versions: 1 2 3 4 5 6 7 8 9 10 11 12 13 14 15 16 17 18 19 20 21 22 23 24 25 26 27 28 29 30 31 32 33 34 35 36 37 38 39 40 41 42 43 44 45 46 47 48 49 50
000
ASUS45 KBOU 181907
RWRCO

WEATHER ROUNDUP FOR COLORADO
NATIONAL WEATHER SERVICE DENVER/BOULDER CO
100 PM MDT THU SEP 18 2014

NOTE: "FAIR" INDICATES FEW OR NO CLOUDS BELOW 12000 FEET WITH NO
SIGNIFICANT WEATHER AND/OR OBSTRUCTIONS TO VISIBILITY.

COZ001>005-013-030-031-182000-
...NORTHWEST COLORADO...

CITY           SKY/WX    TMP DP  RH WIND       PRES   REMARKS
CRAIG          SUNNY     81  42  25 W7        30.07F
HAYDEN         SUNNY     79  34  19 N7        30.10F
MEEKER         SUNNY     81  39  22 SW3       30.08F
MOUNT WERNER   NOT AVBL
STEAMBOAT SPGS SUNNY     77  35  22 SW3       30.12F
WALDEN         SUNNY     73  34  23 S5        30.22F
$$

COZ006>008-011-182000-
...WEST CENTRAL VALLEYS...

CITY           SKY/WX    TMP DP  RH WIND       PRES   REMARKS
GRAND JUNCTION SUNNY     81  41  24 CALM      30.00F
MONTROSE       SUNNY     80  43  26 N5        30.06F
EAGLE          MOSUNNY   73  37  27 CALM      30.13F
RIFLE          SUNNY     77  39  25 CALM      30.04F
DELTA          SUNNY     84  40  21 CALM      30.02F
NUCLA          SUNNY     77  43  29 NW3       30.11F
$$

COZ017>023-064>068-182000-
...SOUTHWEST COLORADO...

CITY           SKY/WX    TMP DP  RH WIND       PRES   REMARKS
DURANGO        SUNNY     78  34  20 E5        30.12F
CORTEZ         SUNNY     79  48  33 S14       30.08F
PAGOSA SPRINGS SUNNY     78  25  14 E7        30.18F
TELLURIDE      NOT AVBL
WOLF CREEK PAS SUNNY     55  30  38 NE9G17    30.50F
$$

COZ009-010-012-014-032>034-037-058>063-182000-
...CENTRAL COLORADO...

CITY           SKY/WX    TMP DP  RH WIND       PRES   REMARKS
ASPEN          SUNNY     77  31  18 N7        30.17F
BUENA VISTA    SUNNY     76  28  17 S8        30.22F
COPPER MTN     SUNNY     66  19  16 SE7G21    30.52F
BERTHOUD PASS  FAIR      54  52  94 SE17G23   30.57F
COTTONWOOD PAS SUNNY     73  21  14 E10G21    30.37F
GUNNISON       SUNNY     73  36  25 NE7       30.22F
KREMMLING      SUNNY     73  32  21 CALM      30.18F
LEADVILLE      SUNNY     66  27  23 S15       30.35F
MONARCH PASS   SUNNY     55  32  41 E18       30.62F
SALIDA         SUNNY     81  25  13 E7        30.26F
SUNLIGHT       PTSUNNY   63  36  36 N3        30.45F
WILKERSON PASS NOT AVBL
$$

COZ069>075-182000-
...SAN LUIS VALLEY/SANGRE DE CRISTO MOUNTAINS...

CITY           SKY/WX    TMP DP  RH WIND       PRES   REMARKS
ALAMOSA        SUNNY     75  34  22 VRB5      30.19F
LA VETA PASS   SUNNY     68  28  22 NE14G26   30.39S
SAGUACHE       NOT AVBL
$$

COZ035-036-038>040-182000-
...NORTHERN COLORADO FRONT RANGE...

CITY           SKY/WX    TMP DP  RH WIND       PRES   REMARKS
DENVER INTL AP MOSUNNY   85  37  18 SW8       30.02F
DMNS CITY PARK   N/A     87  38  17 W3        30.01F
AURORA         MOSUNNY   84  39  20 VRB5      30.05F
FRONT RANGE AP NOT AVBL
ERIE MUNI ARPT SUNNY     86  34  15 SE3       30.00F
BOULDER MUN AP SUNNY     82  43  24 CALM      30.01F
CENTENNIAL     MOSUNNY   83  35  18 VRB6      30.06F
BROOMFIELD     MOSUNNY   86  37  17 VRB6      30.05
FORT COLLINS   SUNNY     84  48  28 S8        30.00F
LONGMONT       SUNNY     88  42  20 E5        30.01F
$$

COZ041-046-047-076>085-087-088-182000-
...PIKES PEAK/PALMER DIVIDE AND SOUTHERN FOOTHILLS...

CITY           SKY/WX    TMP DP  RH WIND       PRES   REMARKS
COLO. SPRINGS  MOSUNNY   83  30  14 VRB7G20   30.11F
A. F. ACADEMY  SUNNY     83  32  15 SE10G17   30.11F
ELLICOTT       NOT AVBL
FALCON         SUNNY     82  30  15 S12G17    30.17F
FORT CARSON    SUNNY     85  35  17 VRB6      30.08F
LIMON          SUNNY     87  32  14 S10G23    30.03F
MONUMENT HILL  MOSUNNY   79  30  17 SW9G18    30.15F
TRINIDAD       SUNNY     84  31  14 SE12      30.08F
$$

COZ042>045-048>051-090-091-182000-
...NORTHEAST COLORADO...

CITY           SKY/WX    TMP DP  RH WIND       PRES   REMARKS
GREELEY ARPT   SUNNY     84  48  28 S7        29.99F
AKRON          SUNNY     83  52  34 S10       30.00F
BURLINGTON     SUNNY     81  56  42 S12G17    29.99F
WRAY           SUNNY     82  62  50 E9        29.96F
STERLING       SUNNY     88  55  33 SE3       29.94F
HOLYOKE        SUNNY     79  64  61 SE10      29.96F
FORT MORGAN    SUNNY     85  45  24 SE7       29.99F
$$

COZ086-089-092>099-182000-
...SOUTHEAST COLORADO...

CITY           SKY/WX    TMP DP  RH WIND       PRES   REMARKS
PUEBLO         SUNNY     88  37  16 S5        29.99F
LA JUNTA       SUNNY     90  36  14 SE12G20   29.98F
LAMAR          SUNNY     92  44  19 SE6       29.93F
SPRINGFIELD      N/A     84  50  30 S12       30.01F
$$


USA.gov is the U.S. government's official web portal to all federal, state and local government web resources and services.